<?xml version="1.0" encoding="UTF-8" standalone="no" ?><gpx xmlns="http://www.topografix.com/GPX/1/1" xmlns:gpxx="http://www.garmin.com/xmlschemas/GpxExtensions/v3" xmlns:wptx1="http://www.garmin.com/xmlschemas/WaypointExtension/v1" xmlns:gpxtpx="http://www.garmin.com/xmlschemas/TrackPointExtension/v1" creator="GuideVTT.com" version="1.1" xmlns:xsi="http://www.w3.org/2001/XMLSchema-instance" xsi:schemaLocation="http://www.topografix.com/GPX/1/1 http://www.topografix.com/GPX/1/1/gpx.xsd http://www.garmin.com/xmlschemas/GpxExtensions/v3 http://www8.garmin.com/xmlschemas/GpxExtensionsv3.xsd http://www.garmin.com/xmlschemas/WaypointExtension/v1 http://www8.garmin.com/xmlschemas/WaypointExtensionv1.xsd http://www.garmin.com/xmlschemas/TrackPointExtension/v1 http://www.garmin.com/xmlschemas/TrackPointExtensionv1.xsd">
<metadata><link href="http://www.garmin.com"><text>Garmin International</text></link><time>2013-06-22T15:13:50Z</time></metadata>
<trk><name>fileout22.gpx</name><extensions><gpxx:TrackExtension><gpxx:DisplayColor>Cyan</gpxx:DisplayColor></gpxx:TrackExtension></extensions><trkseg>
<trkpt lat="48.11470800" lon="-72.24337000"><ele>0</ele><time>2009-01-22T21:50:42Z</time></trkpt>
<trkpt lat="48.11471000" lon="-72.24337000"><ele>0</ele><time>1989-12-31T00:00:00Z</time></trkpt>
<trkpt lat="48.11464700" lon="-72.24343900"><ele>0</ele><time>2009-01-22T21:50:42Z</time></trkpt>
<trkpt lat="48.11465000" lon="-72.24344000"><ele>0</ele><time>1989-12-31T00:00:00Z</time></trkpt>
<trkpt lat="48.11426000" lon="-72.24317000"><ele>0</ele><time>1989-12-31T00:00:00Z</time></trkpt>
<trkpt lat="48.11425800" lon="-72.24317200"><ele>0</ele><time>2009-01-22T21:50:42Z</time></trkpt>
<trkpt lat="48.11438800" lon="-72.24280500"><ele>0</ele><time>2009-01-22T21:50:42Z</time></trkpt>
<trkpt lat="48.11439000" lon="-72.24281000"><ele>0</ele><time>1989-12-31T00:00:00Z</time></trkpt>
<trkpt lat="48.11446000" lon="-72.24270600"><ele>0</ele><time>2009-01-22T21:50:42Z</time></trkpt>
<trkpt lat="48.11446000" lon="-72.24271000"><ele>0</ele><time>1989-12-31T00:00:00Z</time></trkpt>
<trkpt lat="48.11455900" lon="-72.24280500"><ele>0</ele><time>2009-01-22T21:50:42Z</time></trkpt>
<trkpt lat="48.11456000" lon="-72.24281000"><ele>0</ele><time>1989-12-31T00:00:00Z</time></trkpt>
<trkpt lat="48.11456000" lon="-72.24281000"><ele>0</ele><time>1989-12-31T00:00:00Z</time></trkpt>
<trkpt lat="48.11455900" lon="-72.24280500"><ele>0</ele><time>2009-01-22T21:50:42Z</time></trkpt>
<trkpt lat="48.11447000" lon="-72.24272000"><ele>0</ele><time>1989-12-31T00:00:00Z</time></trkpt>
<trkpt lat="48.11446800" lon="-72.24272200"><ele>0</ele><time>2009-01-22T21:50:42Z</time></trkpt>
<trkpt lat="48.11440000" lon="-72.24280000"><ele>0</ele><time>1989-12-31T00:00:00Z</time></trkpt>
<trkpt lat="48.11439900" lon="-72.24279800"><ele>0</ele><time>2009-01-22T21:50:42Z</time></trkpt>
<trkpt lat="48.11433800" lon="-72.24321700"><ele>0</ele><time>2009-01-22T21:50:42Z</time></trkpt>
<trkpt lat="48.11434000" lon="-72.24322000"><ele>0</ele><time>1989-12-31T00:00:00Z</time></trkpt>
<trkpt lat="48.11434900" lon="-72.24346200"><ele>0</ele><time>2009-01-22T21:50:42Z</time></trkpt>
<trkpt lat="48.11435000" lon="-72.24346000"><ele>0</ele><time>1989-12-31T00:00:00Z</time></trkpt>
<trkpt lat="48.11433000" lon="-72.24322000"><ele>0</ele><time>1989-12-31T00:00:00Z</time></trkpt>
<trkpt lat="48.11433000" lon="-72.24321700"><ele>0</ele><time>2009-01-22T21:50:42Z</time></trkpt>
<trkpt lat="48.11433800" lon="-72.24311800"><ele>0</ele><time>2009-01-22T21:50:42Z</time></trkpt>
<trkpt lat="48.11434000" lon="-72.24312000"><ele>0</ele><time>1989-12-31T00:00:00Z</time></trkpt>
<trkpt lat="48.11438000" lon="-72.24302700"><ele>0</ele><time>2009-01-22T21:50:42Z</time></trkpt>
<trkpt lat="48.11438000" lon="-72.24303000"><ele>0</ele><time>1989-12-31T00:00:00Z</time></trkpt>
<trkpt lat="48.11438800" lon="-72.24302700"><ele>0</ele><time>2009-01-22T21:50:42Z</time></trkpt>
<trkpt lat="48.11439000" lon="-72.24303000"><ele>0</ele><time>1989-12-31T00:00:00Z</time></trkpt>
<trkpt lat="48.11438000" lon="-72.24292800"><ele>0</ele><time>2009-01-22T21:50:42Z</time></trkpt>
<trkpt lat="48.11438000" lon="-72.24293000"><ele>0</ele><time>1989-12-31T00:00:00Z</time></trkpt>
<trkpt lat="48.11418000" lon="-72.24069000"><ele>0</ele><time>1989-12-31T00:00:00Z</time></trkpt>
<trkpt lat="48.11417800" lon="-72.24068500"><ele>0</ele><time>2009-01-22T21:50:42Z</time></trkpt>
<trkpt lat="48.11328000" lon="-72.23601000"><ele>0</ele><time>1989-12-31T00:00:00Z</time></trkpt>
<trkpt lat="48.11327700" lon="-72.23600800"><ele>0</ele><time>2009-01-22T21:50:42Z</time></trkpt>
<trkpt lat="48.11282000" lon="-72.23519900"><ele>0</ele><time>2009-01-22T21:50:42Z</time></trkpt>
<trkpt lat="48.11282000" lon="-72.23520000"><ele>0</ele><time>1989-12-31T00:00:00Z</time></trkpt>
<trkpt lat="48.11330000" lon="-72.23484800"><ele>0</ele><time>2009-01-22T21:50:42Z</time></trkpt>
<trkpt lat="48.11330000" lon="-72.23485000"><ele>0</ele><time>1989-12-31T00:00:00Z</time></trkpt>
<trkpt lat="48.11330000" lon="-72.23485000"><ele>0</ele><time>1989-12-31T00:00:00Z</time></trkpt>
<trkpt lat="48.11330000" lon="-72.23484800"><ele>0</ele><time>2009-01-22T21:50:42Z</time></trkpt>
<trkpt lat="48.11755800" lon="-72.23240700"><ele>0</ele><time>2009-01-22T21:50:42Z</time></trkpt>
<trkpt lat="48.11756000" lon="-72.23241000"><ele>0</ele><time>1989-12-31T00:00:00Z</time></trkpt>
<trkpt lat="48.12593800" lon="-72.22859200"><ele>0</ele><time>2009-01-22T21:50:42Z</time></trkpt>
<trkpt lat="48.12594000" lon="-72.22859000"><ele>0</ele><time>1989-12-31T00:00:00Z</time></trkpt>
<trkpt lat="48.12648800" lon="-72.22866100"><ele>0</ele><time>2009-01-22T21:50:42Z</time></trkpt>
<trkpt lat="48.12649000" lon="-72.22866000"><ele>0</ele><time>1989-12-31T00:00:00Z</time></trkpt>
<trkpt lat="48.12767800" lon="-72.22930100"><ele>0</ele><time>2009-01-22T21:50:42Z</time></trkpt>
<trkpt lat="48.12768000" lon="-72.22930000"><ele>0</ele><time>1989-12-31T00:00:00Z</time></trkpt>
<trkpt lat="48.13415000" lon="-72.23603000"><ele>0</ele><time>1989-12-31T00:00:00Z</time></trkpt>
<trkpt lat="48.13414800" lon="-72.23603100"><ele>0</ele><time>2009-01-22T21:50:42Z</time></trkpt>
<trkpt lat="48.13974000" lon="-72.23809000"><ele>0</ele><time>1989-12-31T00:00:00Z</time></trkpt>
<trkpt lat="48.13974000" lon="-72.23809100"><ele>0</ele><time>2009-01-22T21:50:42Z</time></trkpt>
<trkpt lat="48.14286000" lon="-72.23667900"><ele>0</ele><time>2009-01-22T21:50:42Z</time></trkpt>
<trkpt lat="48.14286000" lon="-72.23668000"><ele>0</ele><time>1989-12-31T00:00:00Z</time></trkpt>
<trkpt lat="48.15008900" lon="-72.23437500"><ele>0</ele><time>2009-01-22T21:50:42Z</time></trkpt>
<trkpt lat="48.15009000" lon="-72.23438000"><ele>0</ele><time>1989-12-31T00:00:00Z</time></trkpt>
<trkpt lat="48.15159000" lon="-72.23312000"><ele>0</ele><time>1989-12-31T00:00:00Z</time></trkpt>
<trkpt lat="48.15158800" lon="-72.23311600"><ele>0</ele><time>2009-01-22T21:50:42Z</time></trkpt>
<trkpt lat="48.15535000" lon="-72.23147600"><ele>0</ele><time>2009-01-22T21:50:42Z</time></trkpt>
<trkpt lat="48.15535000" lon="-72.23148000"><ele>0</ele><time>1989-12-31T00:00:00Z</time></trkpt>
<trkpt lat="48.16046900" lon="-72.23088100"><ele>0</ele><time>2009-01-22T21:50:42Z</time></trkpt>
<trkpt lat="48.16047000" lon="-72.23088000"><ele>0</ele><time>1989-12-31T00:00:00Z</time></trkpt>
<trkpt lat="48.16819000" lon="-72.22499000"><ele>0</ele><time>1989-12-31T00:00:00Z</time></trkpt>
<trkpt lat="48.16819000" lon="-72.22499100"><ele>0</ele><time>2009-01-22T21:50:42Z</time></trkpt>
<trkpt lat="48.16904100" lon="-72.22310600"><ele>0</ele><time>2009-01-22T21:50:42Z</time></trkpt>
<trkpt lat="48.16904000" lon="-72.22311000"><ele>0</ele><time>1989-12-31T00:00:00Z</time></trkpt>
<trkpt lat="48.17426000" lon="-72.21520000"><ele>0</ele><time>1989-12-31T00:00:00Z</time></trkpt>
<trkpt lat="48.17425900" lon="-72.21519500"><ele>0</ele><time>2009-01-22T21:50:42Z</time></trkpt>
<trkpt lat="48.18019000" lon="-72.21390000"><ele>0</ele><time>1989-12-31T00:00:00Z</time></trkpt>
<trkpt lat="48.18018700" lon="-72.21389800"><ele>0</ele><time>2009-01-22T21:50:42Z</time></trkpt>
<trkpt lat="48.18174000" lon="-72.21517200"><ele>0</ele><time>2009-01-22T21:50:42Z</time></trkpt>
<trkpt lat="48.18174000" lon="-72.21517000"><ele>0</ele><time>1989-12-31T00:00:00Z</time></trkpt>
<trkpt lat="48.18251000" lon="-72.21579700"><ele>0</ele><time>2009-01-22T21:50:42Z</time></trkpt>
<trkpt lat="48.18251000" lon="-72.21580000"><ele>0</ele><time>1989-12-31T00:00:00Z</time></trkpt>
<trkpt lat="48.19133000" lon="-72.21737000"><ele>0</ele><time>1989-12-31T00:00:00Z</time></trkpt>
<trkpt lat="48.19133000" lon="-72.21736900"><ele>0</ele><time>2009-01-22T21:50:42Z</time></trkpt>
<trkpt lat="48.19649900" lon="-72.21492800"><ele>0</ele><time>2009-01-22T21:50:42Z</time></trkpt>
<trkpt lat="48.19650000" lon="-72.21493000"><ele>0</ele><time>1989-12-31T00:00:00Z</time></trkpt>
<trkpt lat="48.19743700" lon="-72.21443900"><ele>0</ele><time>2009-01-22T21:50:42Z</time></trkpt>
<trkpt lat="48.19744000" lon="-72.21444000"><ele>0</ele><time>1989-12-31T00:00:00Z</time></trkpt>
<trkpt lat="48.20002000" lon="-72.21313000"><ele>0</ele><time>1989-12-31T00:00:00Z</time></trkpt>
<trkpt lat="48.20002000" lon="-72.21312700"><ele>0</ele><time>2009-01-22T21:50:42Z</time></trkpt>
<trkpt lat="48.20892700" lon="-72.21054100"><ele>0</ele><time>2009-01-22T21:50:42Z</time></trkpt>
<trkpt lat="48.20893000" lon="-72.21054000"><ele>0</ele><time>1989-12-31T00:00:00Z</time></trkpt>
<trkpt lat="48.21419000" lon="-72.20841000"><ele>0</ele><time>1989-12-31T00:00:00Z</time></trkpt>
<trkpt lat="48.21418800" lon="-72.20840500"><ele>0</ele><time>2009-01-22T21:50:42Z</time></trkpt>
<trkpt lat="48.21791000" lon="-72.20691000"><ele>0</ele><time>1989-12-31T00:00:00Z</time></trkpt>
<trkpt lat="48.21790700" lon="-72.20690900"><ele>0</ele><time>2009-01-22T21:50:42Z</time></trkpt>
<trkpt lat="48.22654000" lon="-72.20407100"><ele>0</ele><time>2009-01-22T21:50:42Z</time></trkpt>
<trkpt lat="48.22654000" lon="-72.20407000"><ele>0</ele><time>1989-12-31T00:00:00Z</time></trkpt>
<trkpt lat="48.23082000" lon="-72.20159100"><ele>0</ele><time>2009-01-22T21:50:42Z</time></trkpt>
<trkpt lat="48.23082000" lon="-72.20159000"><ele>0</ele><time>1989-12-31T00:00:00Z</time></trkpt>
<trkpt lat="48.23502000" lon="-72.19950000"><ele>0</ele><time>1989-12-31T00:00:00Z</time></trkpt>
<trkpt lat="48.23502000" lon="-72.19950100"><ele>0</ele><time>2009-01-22T21:50:42Z</time></trkpt>
<trkpt lat="48.24269900" lon="-72.19194800"><ele>0</ele><time>2009-01-22T21:50:42Z</time></trkpt>
<trkpt lat="48.24270000" lon="-72.19195000"><ele>0</ele><time>1989-12-31T00:00:00Z</time></trkpt>
<trkpt lat="48.24535800" lon="-72.18994900"><ele>0</ele><time>2009-01-22T21:50:42Z</time></trkpt>
<trkpt lat="48.24536000" lon="-72.18995000"><ele>0</ele><time>1989-12-31T00:00:00Z</time></trkpt>
<trkpt lat="48.25085100" lon="-72.18593600"><ele>0</ele><time>2009-01-22T21:50:42Z</time></trkpt>
<trkpt lat="48.25085000" lon="-72.18594000"><ele>0</ele><time>1989-12-31T00:00:00Z</time></trkpt>
<trkpt lat="48.25864000" lon="-72.18036700"><ele>0</ele><time>2009-01-22T21:50:42Z</time></trkpt>
<trkpt lat="48.25864000" lon="-72.18037000"><ele>0</ele><time>1989-12-31T00:00:00Z</time></trkpt>
<trkpt lat="48.25870000" lon="-72.18049000"><ele>0</ele><time>1989-12-31T00:00:00Z</time></trkpt>
<trkpt lat="48.25869800" lon="-72.18048900"><ele>0</ele><time>2009-01-22T21:50:42Z</time></trkpt>
<trkpt lat="48.25883000" lon="-72.18084000"><ele>0</ele><time>1989-12-31T00:00:00Z</time></trkpt>
<trkpt lat="48.25882700" lon="-72.18084000"><ele>0</ele><time>2009-01-22T21:50:42Z</time></trkpt>
<trkpt lat="48.25893800" lon="-72.18138900"><ele>0</ele><time>2009-01-22T21:50:42Z</time></trkpt>
<trkpt lat="48.25894000" lon="-72.18139000"><ele>0</ele><time>1989-12-31T00:00:00Z</time></trkpt>
<trkpt lat="48.25927700" lon="-72.18429600"><ele>0</ele><time>2009-01-22T21:50:42Z</time></trkpt>
<trkpt lat="48.25928000" lon="-72.18430000"><ele>0</ele><time>1989-12-31T00:00:00Z</time></trkpt>
<trkpt lat="48.25887000" lon="-72.18478000"><ele>0</ele><time>1989-12-31T00:00:00Z</time></trkpt>
<trkpt lat="48.25886900" lon="-72.18477600"><ele>0</ele><time>2009-01-22T21:50:42Z</time></trkpt>
<trkpt lat="48.25869800" lon="-72.18486800"><ele>0</ele><time>2009-01-22T21:50:42Z</time></trkpt>
<trkpt lat="48.25870000" lon="-72.18487000"><ele>0</ele><time>1989-12-31T00:00:00Z</time></trkpt>
<trkpt lat="48.25841900" lon="-72.18512700"><ele>0</ele><time>2009-01-22T21:50:42Z</time></trkpt>
<trkpt lat="48.25842000" lon="-72.18513000"><ele>0</ele><time>1989-12-31T00:00:00Z</time></trkpt>
<trkpt lat="48.25829000" lon="-72.18492000"><ele>0</ele><time>1989-12-31T00:00:00Z</time></trkpt>
<trkpt lat="48.25828900" lon="-72.18492100"><ele>0</ele><time>2009-01-22T21:50:42Z</time></trkpt>
<trkpt lat="48.25828900" lon="-72.18489800"><ele>0</ele><time>2009-01-22T21:50:42Z</time></trkpt>
<trkpt lat="48.25829000" lon="-72.18490000"><ele>0</ele><time>1989-12-31T00:00:00Z</time></trkpt>
<trkpt lat="48.25839000" lon="-72.18480000"><ele>0</ele><time>1989-12-31T00:00:00Z</time></trkpt>
<trkpt lat="48.25838900" lon="-72.18479900"><ele>0</ele><time>2009-01-22T21:50:42Z</time></trkpt>
<trkpt lat="48.25856000" lon="-72.18504000"><ele>0</ele><time>1989-12-31T00:00:00Z</time></trkpt>
<trkpt lat="48.25856000" lon="-72.18503600"><ele>0</ele><time>2009-01-22T21:50:42Z</time></trkpt>
<trkpt lat="48.25882000" lon="-72.18484500"><ele>0</ele><time>2009-01-22T21:50:42Z</time></trkpt>
<trkpt lat="48.25882000" lon="-72.18485000"><ele>0</ele><time>1989-12-31T00:00:00Z</time></trkpt>
<trkpt lat="48.25917100" lon="-72.18437200"><ele>0</ele><time>2009-01-22T21:50:42Z</time></trkpt>
<trkpt lat="48.25917000" lon="-72.18437000"><ele>0</ele><time>1989-12-31T00:00:00Z</time></trkpt>
<trkpt lat="48.25938000" lon="-72.18386800"><ele>0</ele><time>2009-01-22T21:50:42Z</time></trkpt>
<trkpt lat="48.25938000" lon="-72.18387000"><ele>0</ele><time>1989-12-31T00:00:00Z</time></trkpt>
<trkpt lat="48.25853000" lon="-72.18043000"><ele>0</ele><time>1989-12-31T00:00:00Z</time></trkpt>
<trkpt lat="48.25853000" lon="-72.18042800"><ele>0</ele><time>2009-01-22T21:50:42Z</time></trkpt>
<trkpt lat="48.25841900" lon="-72.18042000"><ele>0</ele><time>2009-01-22T21:50:42Z</time></trkpt>
<trkpt lat="48.25842000" lon="-72.18042000"><ele>0</ele><time>1989-12-31T00:00:00Z</time></trkpt>
<trkpt lat="48.25653800" lon="-72.18180800"><ele>0</ele><time>2009-01-22T21:50:42Z</time></trkpt>
<trkpt lat="48.25654000" lon="-72.18181000"><ele>0</ele><time>1989-12-31T00:00:00Z</time></trkpt>
<trkpt lat="48.25398000" lon="-72.18370000"><ele>0</ele><time>1989-12-31T00:00:00Z</time></trkpt>
<trkpt lat="48.25397900" lon="-72.18370100"><ele>0</ele><time>2009-01-22T21:50:42Z</time></trkpt>
<trkpt lat="48.24579000" lon="-72.18972000"><ele>0</ele><time>1989-12-31T00:00:00Z</time></trkpt>
<trkpt lat="48.24578900" lon="-72.18972000"><ele>0</ele><time>2009-01-22T21:50:42Z</time></trkpt>
<trkpt lat="48.24272900" lon="-72.19197800"><ele>0</ele><time>2009-01-22T21:50:42Z</time></trkpt>
<trkpt lat="48.24273000" lon="-72.19198000"><ele>0</ele><time>1989-12-31T00:00:00Z</time></trkpt>
<trkpt lat="48.23798800" lon="-72.19664800"><ele>0</ele><time>2009-01-22T21:50:42Z</time></trkpt>
<trkpt lat="48.23799000" lon="-72.19665000"><ele>0</ele><time>1989-12-31T00:00:00Z</time></trkpt>
<trkpt lat="48.22947700" lon="-72.20222500"><ele>0</ele><time>2009-01-22T21:50:42Z</time></trkpt>
<trkpt lat="48.22948000" lon="-72.20223000"><ele>0</ele><time>1989-12-31T00:00:00Z</time></trkpt>
<trkpt lat="48.22863800" lon="-72.20262100"><ele>0</ele><time>2009-01-22T21:50:42Z</time></trkpt>
<trkpt lat="48.22864000" lon="-72.20262000"><ele>0</ele><time>1989-12-31T00:00:00Z</time></trkpt>
<trkpt lat="48.22080000" lon="-72.20670000"><ele>0</ele><time>1989-12-31T00:00:00Z</time></trkpt>
<trkpt lat="48.22079800" lon="-72.20669600"><ele>0</ele><time>2009-01-22T21:50:42Z</time></trkpt>
<trkpt lat="48.21350900" lon="-72.20871000"><ele>0</ele><time>2009-01-22T21:50:42Z</time></trkpt>
<trkpt lat="48.21351000" lon="-72.20871000"><ele>0</ele><time>1989-12-31T00:00:00Z</time></trkpt>
<trkpt lat="48.21188700" lon="-72.20936600"><ele>0</ele><time>2009-01-22T21:50:42Z</time></trkpt>
<trkpt lat="48.21189000" lon="-72.20937000"><ele>0</ele><time>1989-12-31T00:00:00Z</time></trkpt>
<trkpt lat="48.20291000" lon="-72.21243000"><ele>0</ele><time>1989-12-31T00:00:00Z</time></trkpt>
<trkpt lat="48.20290800" lon="-72.21242500"><ele>0</ele><time>2009-01-22T21:50:42Z</time></trkpt>
<trkpt lat="48.19606000" lon="-72.21502000"><ele>0</ele><time>1989-12-31T00:00:00Z</time></trkpt>
<trkpt lat="48.19606000" lon="-72.21501900"><ele>0</ele><time>2009-01-22T21:50:42Z</time></trkpt>
<trkpt lat="48.19414900" lon="-72.21596500"><ele>0</ele><time>2009-01-22T21:50:42Z</time></trkpt>
<trkpt lat="48.19415000" lon="-72.21597000"><ele>0</ele><time>1989-12-31T00:00:00Z</time></trkpt>
<trkpt lat="48.18531000" lon="-72.21733100"><ele>0</ele><time>2009-01-22T21:50:42Z</time></trkpt>
<trkpt lat="48.18531000" lon="-72.21733000"><ele>0</ele><time>1989-12-31T00:00:00Z</time></trkpt>
<trkpt lat="48.17918800" lon="-72.21326400"><ele>0</ele><time>2009-01-22T21:50:42Z</time></trkpt>
<trkpt lat="48.17919000" lon="-72.21327000"><ele>0</ele><time>1989-12-31T00:00:00Z</time></trkpt>
<trkpt lat="48.17677700" lon="-72.21321100"><ele>0</ele><time>2009-01-22T21:50:42Z</time></trkpt>
<trkpt lat="48.17678000" lon="-72.21321000"><ele>0</ele><time>1989-12-31T00:00:00Z</time></trkpt>
<trkpt lat="48.17050000" lon="-72.21979000"><ele>0</ele><time>1989-12-31T00:00:00Z</time></trkpt>
<trkpt lat="48.17049800" lon="-72.21978800"><ele>0</ele><time>2009-01-22T21:50:42Z</time></trkpt>
<trkpt lat="48.16975800" lon="-72.22145100"><ele>0</ele><time>2009-01-22T21:50:42Z</time></trkpt>
<trkpt lat="48.16976000" lon="-72.22145000"><ele>0</ele><time>1989-12-31T00:00:00Z</time></trkpt>
<trkpt lat="48.16569900" lon="-72.22890500"><ele>0</ele><time>2009-01-22T21:50:42Z</time></trkpt>
<trkpt lat="48.16570000" lon="-72.22891000"><ele>0</ele><time>1989-12-31T00:00:00Z</time></trkpt>
<trkpt lat="48.16339900" lon="-72.23053000"><ele>0</ele><time>2009-01-22T21:50:42Z</time></trkpt>
<trkpt lat="48.16340000" lon="-72.23053000"><ele>0</ele><time>1989-12-31T00:00:00Z</time></trkpt>
<trkpt lat="48.16220000" lon="-72.23086000"><ele>0</ele><time>1989-12-31T00:00:00Z</time></trkpt>
<trkpt lat="48.16219700" lon="-72.23085800"><ele>0</ele><time>2009-01-22T21:50:42Z</time></trkpt>
<trkpt lat="48.15415000" lon="-72.23173000"><ele>0</ele><time>1989-12-31T00:00:00Z</time></trkpt>
<trkpt lat="48.15414800" lon="-72.23172800"><ele>0</ele><time>2009-01-22T21:50:42Z</time></trkpt>
<trkpt lat="48.14865000" lon="-72.23499000"><ele>0</ele><time>1989-12-31T00:00:00Z</time></trkpt>
<trkpt lat="48.14864700" lon="-72.23498500"><ele>0</ele><time>2009-01-22T21:50:42Z</time></trkpt>
<trkpt lat="48.14555000" lon="-72.23559600"><ele>0</ele><time>2009-01-22T21:50:42Z</time></trkpt>
<trkpt lat="48.14555000" lon="-72.23560000"><ele>0</ele><time>1989-12-31T00:00:00Z</time></trkpt>
<trkpt lat="48.13649000" lon="-72.23838000"><ele>0</ele><time>2009-01-22T21:50:42Z</time></trkpt>
<trkpt lat="48.13649000" lon="-72.23838000"><ele>0</ele><time>1989-12-31T00:00:00Z</time></trkpt>
<trkpt lat="48.13213000" lon="-72.23393000"><ele>0</ele><time>1989-12-31T00:00:00Z</time></trkpt>
<trkpt lat="48.13213000" lon="-72.23392500"><ele>0</ele><time>2009-01-22T21:50:42Z</time></trkpt>
<trkpt lat="48.12907800" lon="-72.23066700"><ele>0</ele><time>2009-01-22T21:50:42Z</time></trkpt>
<trkpt lat="48.12908000" lon="-72.23067000"><ele>0</ele><time>1989-12-31T00:00:00Z</time></trkpt>
<trkpt lat="48.12064000" lon="-72.23095700"><ele>0</ele><time>2009-01-22T21:50:42Z</time></trkpt>
<trkpt lat="48.12064000" lon="-72.23096000"><ele>0</ele><time>1989-12-31T00:00:00Z</time></trkpt>
<trkpt lat="48.11781700" lon="-72.23243000"><ele>0</ele><time>2009-01-22T21:50:42Z</time></trkpt>
<trkpt lat="48.11782000" lon="-72.23243000"><ele>0</ele><time>1989-12-31T00:00:00Z</time></trkpt>
<trkpt lat="48.11276000" lon="-72.23549000"><ele>0</ele><time>1989-12-31T00:00:00Z</time></trkpt>
<trkpt lat="48.11275900" lon="-72.23548900"><ele>0</ele><time>2009-01-22T21:50:42Z</time></trkpt>
<trkpt lat="48.11299000" lon="-72.23591000"><ele>0</ele><time>1989-12-31T00:00:00Z</time></trkpt>
<trkpt lat="48.11298800" lon="-72.23590900"><ele>0</ele><time>2009-01-22T21:50:42Z</time></trkpt>
<trkpt lat="48.11309000" lon="-72.23603000"><ele>0</ele><time>1989-12-31T00:00:00Z</time></trkpt>
<trkpt lat="48.11309100" lon="-72.23603100"><ele>0</ele><time>2009-01-22T21:50:42Z</time></trkpt>
<trkpt lat="48.11375000" lon="-72.23925000"><ele>0</ele><time>2009-01-22T21:50:42Z</time></trkpt>
<trkpt lat="48.11375000" lon="-72.23925000"><ele>0</ele><time>1989-12-31T00:00:00Z</time></trkpt>
<trkpt lat="48.11422000" lon="-72.24087500"><ele>0</ele><time>2009-01-22T21:50:42Z</time></trkpt>
<trkpt lat="48.11422000" lon="-72.24088000"><ele>0</ele><time>1989-12-31T00:00:00Z</time></trkpt>
<trkpt lat="48.11448000" lon="-72.24305000"><ele>0</ele><time>1989-12-31T00:00:00Z</time></trkpt>
<trkpt lat="48.11447900" lon="-72.24305000"><ele>0</ele><time>2009-01-22T21:50:42Z</time></trkpt>
<trkpt lat="48.11457800" lon="-72.24343100"><ele>0</ele><time>2009-01-22T21:50:42Z</time></trkpt>
<trkpt lat="48.11458000" lon="-72.24343000"><ele>0</ele><time>1989-12-31T00:00:00Z</time></trkpt>
<trkpt lat="48.11450000" lon="-72.24320000"><ele>0</ele><time>1989-12-31T00:00:00Z</time></trkpt>
<trkpt lat="48.11449800" lon="-72.24319500"><ele>0</ele><time>2009-01-22T21:50:42Z</time></trkpt>
<trkpt lat="48.11468900" lon="-72.24346200"><ele>0</ele><time>2009-01-22T21:50:42Z</time></trkpt>
<trkpt lat="48.11469000" lon="-72.24346000"><ele>0</ele><time>1989-12-31T00:00:00Z</time></trkpt>
<trkpt lat="48.11469000" lon="-72.24347000"><ele>0</ele><time>1989-12-31T00:00:00Z</time></trkpt>
<trkpt lat="48.11468900" lon="-72.24346900"><ele>0</ele><time>2009-01-22T21:50:42Z</time></trkpt>
<trkpt lat="48.11469000" lon="-72.24347000"><ele>0</ele><time>1989-12-31T00:00:00Z</time></trkpt>
<trkpt lat="48.11468900" lon="-72.24346900"><ele>0</ele><time>2009-01-22T21:50:42Z</time></trkpt>
<trkpt lat="48.11468900" lon="-72.24346900"><ele>0</ele><time>2009-01-22T21:50:42Z</time></trkpt>
<trkpt lat="48.11469000" lon="-72.24347000"><ele>0</ele><time>1989-12-31T00:00:00Z</time></trkpt>
<trkpt lat="48.11468900" lon="-72.24353800"><ele>0</ele><time>2009-01-22T21:50:42Z</time></trkpt>
<trkpt lat="48.11469000" lon="-72.24354000"><ele>0</ele><time>1989-12-31T00:00:00Z</time></trkpt>
<trkpt lat="48.11460000" lon="-72.24339000"><ele>0</ele><time>1989-12-31T00:00:00Z</time></trkpt>
<trkpt lat="48.11459700" lon="-72.24338500"><ele>0</ele><time>2009-01-22T21:50:42Z</time></trkpt>
<trkpt lat="48.11459700" lon="-72.24340100"><ele>0</ele><time>2009-01-22T21:50:42Z</time></trkpt>
<trkpt lat="48.11460000" lon="-72.24340000"><ele>0</ele><time>1989-12-31T00:00:00Z</time></trkpt>
<trkpt lat="48.11459700" lon="-72.24340800"><ele>0</ele><time>2009-01-22T21:50:42Z</time></trkpt>
<trkpt lat="48.11460000" lon="-72.24341000"><ele>0</ele><time>1989-12-31T00:00:00Z</time></trkpt>
<trkpt lat="48.11459700" lon="-72.24343100"><ele>0</ele><time>2009-01-22T21:50:42Z</time></trkpt>
<trkpt lat="48.11460000" lon="-72.24343000"><ele>0</ele><time>1989-12-31T00:00:00Z</time></trkpt>
<trkpt lat="48.11460900" lon="-72.24346900"><ele>0</ele><time>2009-01-22T21:50:42Z</time></trkpt>
<trkpt lat="48.11461000" lon="-72.24347000"><ele>0</ele><time>1989-12-31T00:00:00Z</time></trkpt>
<trkpt lat="48.11462000" lon="-72.24348000"><ele>0</ele><time>1989-12-31T00:00:00Z</time></trkpt>
<trkpt lat="48.11462000" lon="-72.24347700"><ele>0</ele><time>2009-01-22T21:50:42Z</time></trkpt>
<trkpt lat="48.11462000" lon="-72.24346000"><ele>0</ele><time>1989-12-31T00:00:00Z</time></trkpt>
<trkpt lat="48.11462000" lon="-72.24346200"><ele>0</ele><time>2009-01-22T21:50:42Z</time></trkpt>
<trkpt lat="48.11454800" lon="-72.24344600"><ele>0</ele><time>2009-01-22T21:50:42Z</time></trkpt>
<trkpt lat="48.11455000" lon="-72.24345000"><ele>0</ele><time>1989-12-31T00:00:00Z</time></trkpt>
<trkpt lat="48.11454800" lon="-72.24344600"><ele>0</ele><time>2009-01-22T21:50:42Z</time></trkpt>
<trkpt lat="48.11455000" lon="-72.24345000"><ele>0</ele><time>1989-12-31T00:00:00Z</time></trkpt>
<trkpt lat="48.11455000" lon="-72.24345000"><ele>0</ele><time>1989-12-31T00:00:00Z</time></trkpt>
<trkpt lat="48.11454800" lon="-72.24344600"><ele>0</ele><time>2009-01-22T21:50:42Z</time></trkpt>
<trkpt lat="48.11454800" lon="-72.24344600"><ele>0</ele><time>2009-01-22T21:50:42Z</time></trkpt>
<trkpt lat="48.11455000" lon="-72.24345000"><ele>0</ele><time>1989-12-31T00:00:00Z</time></trkpt>
<trkpt lat="48.11454800" lon="-72.24344600"><ele>0</ele><time>2009-01-22T21:50:42Z</time></trkpt>
<trkpt lat="48.11455000" lon="-72.24345000"><ele>0</ele><time>1989-12-31T00:00:00Z</time></trkpt>
<trkpt lat="48.11454800" lon="-72.24344600"><ele>0</ele><time>2009-01-22T21:50:42Z</time></trkpt>
<trkpt lat="48.11455000" lon="-72.24345000"><ele>0</ele><time>1989-12-31T00:00:00Z</time></trkpt>
<trkpt lat="48.11454800" lon="-72.24344600"><ele>0</ele><time>2009-01-22T21:50:42Z</time></trkpt>
<trkpt lat="48.11455000" lon="-72.24345000"><ele>0</ele><time>1989-12-31T00:00:00Z</time></trkpt>
<trkpt lat="48.11455000" lon="-72.24345000"><ele>0</ele><time>1989-12-31T00:00:00Z</time></trkpt>
<trkpt lat="48.11454800" lon="-72.24344600"><ele>0</ele><time>2009-01-22T21:50:42Z</time></trkpt>
<trkpt lat="48.11455000" lon="-72.24345000"><ele>0</ele><time>1989-12-31T00:00:00Z</time></trkpt>
<trkpt lat="48.11454800" lon="-72.24344600"><ele>0</ele><time>2009-01-22T21:50:42Z</time></trkpt>
<trkpt lat="48.11454800" lon="-72.24344600"><ele>0</ele><time>2009-01-22T21:50:42Z</time></trkpt>
<trkpt lat="48.11455000" lon="-72.24345000"><ele>0</ele><time>1989-12-31T00:00:00Z</time></trkpt>
<trkpt lat="48.11454800" lon="-72.24344600"><ele>0</ele><time>2009-01-22T21:50:42Z</time></trkpt>
<trkpt lat="48.11455000" lon="-72.24345000"><ele>0</ele><time>1989-12-31T00:00:00Z</time></trkpt>
<trkpt lat="48.11460000" lon="-72.24264000"><ele>0</ele><time>1989-12-31T00:00:00Z</time></trkpt>
<trkpt lat="48.11459700" lon="-72.24263800"><ele>0</ele><time>2009-01-22T21:50:42Z</time></trkpt>
<trkpt lat="48.11446000" lon="-72.24277500"><ele>0</ele><time>2009-01-22T21:50:42Z</time></trkpt>
<trkpt lat="48.11446000" lon="-72.24278000"><ele>0</ele><time>1989-12-31T00:00:00Z</time></trkpt>
<trkpt lat="48.11457100" lon="-72.24264500"><ele>0</ele><time>2009-01-22T21:50:42Z</time></trkpt>
<trkpt lat="48.11457000" lon="-72.24265000"><ele>0</ele><time>1989-12-31T00:00:00Z</time></trkpt>
<trkpt lat="48.11481000" lon="-72.24285000"><ele>0</ele><time>1989-12-31T00:00:00Z</time></trkpt>
<trkpt lat="48.11480700" lon="-72.24285100"><ele>0</ele><time>2009-01-22T21:50:42Z</time></trkpt>
<trkpt lat="48.11496700" lon="-72.24295800"><ele>0</ele><time>2009-01-22T21:50:42Z</time></trkpt>
<trkpt lat="48.11497000" lon="-72.24296000"><ele>0</ele><time>1989-12-31T00:00:00Z</time></trkpt>
<trkpt lat="48.11523000" lon="-72.24322000"><ele>0</ele><time>1989-12-31T00:00:00Z</time></trkpt>
<trkpt lat="48.11523100" lon="-72.24321700"><ele>0</ele><time>2009-01-22T21:50:42Z</time></trkpt>
<trkpt lat="48.11578000" lon="-72.24370000"><ele>0</ele><time>1989-12-31T00:00:00Z</time></trkpt>
<trkpt lat="48.11578000" lon="-72.24369800"><ele>0</ele><time>2009-01-22T21:50:42Z</time></trkpt>
<trkpt lat="48.11587900" lon="-72.24383500"><ele>0</ele><time>2009-01-22T21:50:42Z</time></trkpt>
<trkpt lat="48.11588000" lon="-72.24384000"><ele>0</ele><time>1989-12-31T00:00:00Z</time></trkpt>
<trkpt lat="48.11612700" lon="-72.24408700"><ele>0</ele><time>2009-01-22T21:50:42Z</time></trkpt>
<trkpt lat="48.11613000" lon="-72.24409000"><ele>0</ele><time>1989-12-31T00:00:00Z</time></trkpt>
<trkpt lat="48.11635000" lon="-72.24367000"><ele>0</ele><time>1989-12-31T00:00:00Z</time></trkpt>
<trkpt lat="48.11634800" lon="-72.24366800"><ele>0</ele><time>2009-01-22T21:50:42Z</time></trkpt>
<trkpt lat="48.11639800" lon="-72.24362900"><ele>0</ele><time>2009-01-22T21:50:42Z</time></trkpt>
<trkpt lat="48.11640000" lon="-72.24363000"><ele>0</ele><time>1989-12-31T00:00:00Z</time></trkpt>
<trkpt lat="48.11536000" lon="-72.24337000"><ele>0</ele><time>2009-01-22T21:50:42Z</time></trkpt>
<trkpt lat="48.11536000" lon="-72.24337000"><ele>0</ele><time>1989-12-31T00:00:00Z</time></trkpt>
<trkpt lat="48.11456000" lon="-72.24261000"><ele>0</ele><time>1989-12-31T00:00:00Z</time></trkpt>
<trkpt lat="48.11455900" lon="-72.24260700"><ele>0</ele><time>2009-01-22T21:50:42Z</time></trkpt>
<trkpt lat="48.11455900" lon="-72.24260700"><ele>0</ele><time>2009-01-22T21:50:42Z</time></trkpt>
<trkpt lat="48.11456000" lon="-72.24261000"><ele>0</ele><time>1989-12-31T00:00:00Z</time></trkpt>
<trkpt lat="48.11456000" lon="-72.24261000"><ele>0</ele><time>1989-12-31T00:00:00Z</time></trkpt>
<trkpt lat="48.11455900" lon="-72.24260700"><ele>0</ele><time>2009-01-22T21:50:42Z</time></trkpt>
<trkpt lat="48.11439000" lon="-72.24316000"><ele>0</ele><time>1989-12-31T00:00:00Z</time></trkpt>
<trkpt lat="48.11438800" lon="-72.24315600"><ele>0</ele><time>2009-01-22T21:50:42Z</time></trkpt>
<trkpt lat="" lon=""><ele>0</ele><time>Year-Month#-Day#THour:Min:SecZ</time></trkpt>
<trkpt lat="20090122" lon=""><ele>0</ele><time>-0-0T0:0:0Z</time></trkpt>
<trkpt lat="48.11457800" lon="-72.24343100"><ele>0</ele><time>2009-01-22T21:50:42Z</time></trkpt>
<trkpt lat="48.11449800" lon="-72.24319500"><ele>0</ele><time>2009-01-22T21:50:42Z</time></trkpt>
<trkpt lat="48.11468900" lon="-72.24346200"><ele>0</ele><time>2009-01-22T21:50:42Z</time></trkpt>
<trkpt lat="48.11468900" lon="-72.24346900"><ele>0</ele><time>2009-01-22T21:50:42Z</time></trkpt>
<trkpt lat="48.11468900" lon="-72.24346900"><ele>0</ele><time>2009-01-22T21:50:42Z</time></trkpt>
<trkpt lat="48.11468900" lon="-72.24346900"><ele>0</ele><time>2009-01-22T21:50:42Z</time></trkpt>
<trkpt lat="48.11468900" lon="-72.24353800"><ele>0</ele><time>2009-01-22T21:50:42Z</time></trkpt>
<trkpt lat="48.11459700" lon="-72.24338500"><ele>0</ele><time>2009-01-22T21:50:42Z</time></trkpt>
<trkpt lat="48.11459700" lon="-72.24340100"><ele>0</ele><time>2009-01-22T21:50:42Z</time></trkpt>
<trkpt lat="48.11459700" lon="-72.24340800"><ele>0</ele><time>2009-01-22T21:50:42Z</time></trkpt>
<trkpt lat="48.11459700" lon="-72.24343100"><ele>0</ele><time>2009-01-22T21:50:42Z</time></trkpt>
<trkpt lat="48.11460900" lon="-72.24346900"><ele>0</ele><time>2009-01-22T21:50:42Z</time></trkpt>
<trkpt lat="48.11462000" lon="-72.24347700"><ele>0</ele><time>2009-01-22T21:50:42Z</time></trkpt>
<trkpt lat="48.11462000" lon="-72.24346200"><ele>0</ele><time>2009-01-22T21:50:42Z</time></trkpt>
<trkpt lat="48.11454800" lon="-72.24344600"><ele>0</ele><time>2009-01-22T21:50:42Z</time></trkpt>
<trkpt lat="48.11454800" lon="-72.24344600"><ele>0</ele><time>2009-01-22T21:50:42Z</time></trkpt>
<trkpt lat="48.11454800" lon="-72.24344600"><ele>0</ele><time>2009-01-22T21:50:42Z</time></trkpt>
<trkpt lat="48.11454800" lon="-72.24344600"><ele>0</ele><time>2009-01-22T21:50:42Z</time></trkpt>
<trkpt lat="48.11454800" lon="-72.24344600"><ele>0</ele><time>2009-01-22T21:50:42Z</time></trkpt>
<trkpt lat="48.11454800" lon="-72.24344600"><ele>0</ele><time>2009-01-22T21:50:42Z</time></trkpt>
<trkpt lat="48.11454800" lon="-72.24344600"><ele>0</ele><time>2009-01-22T21:50:42Z</time></trkpt>
<trkpt lat="48.11454800" lon="-72.24344600"><ele>0</ele><time>2009-01-22T21:50:42Z</time></trkpt>
<trkpt lat="48.11454800" lon="-72.24344600"><ele>0</ele><time>2009-01-22T21:50:42Z</time></trkpt>
<trkpt lat="48.11454800" lon="-72.24344600"><ele>0</ele><time>2009-01-22T21:50:42Z</time></trkpt>
<trkpt lat="48.11454800" lon="-72.24344600"><ele>0</ele><time>2009-01-22T21:50:42Z</time></trkpt>
<trkpt lat="48.11459700" lon="-72.24263800"><ele>0</ele><time>2009-01-22T21:50:42Z</time></trkpt>
<trkpt lat="48.11446000" lon="-72.24277500"><ele>0</ele><time>2009-01-22T21:50:42Z</time></trkpt>
<trkpt lat="48.11457100" lon="-72.24264500"><ele>0</ele><time>2009-01-22T21:50:42Z</time></trkpt>
<trkpt lat="48.11480700" lon="-72.24285100"><ele>0</ele><time>2009-01-22T21:50:42Z</time></trkpt>
<trkpt lat="48.11496700" lon="-72.24295800"><ele>0</ele><time>2009-01-22T21:50:42Z</time></trkpt>
<trkpt lat="48.11523100" lon="-72.24321700"><ele>0</ele><time>2009-01-22T21:50:42Z</time></trkpt>
<trkpt lat="48.11578000" lon="-72.24369800"><ele>0</ele><time>2009-01-22T21:50:42Z</time></trkpt>
<trkpt lat="48.11587900" lon="-72.24383500"><ele>0</ele><time>2009-01-22T21:50:42Z</time></trkpt>
<trkpt lat="48.11612700" lon="-72.24408700"><ele>0</ele><time>2009-01-22T21:50:42Z</time></trkpt>
<trkpt lat="48.11634800" lon="-72.24366800"><ele>0</ele><time>2009-01-22T21:50:42Z</time></trkpt>
<trkpt lat="48.11639800" lon="-72.24362900"><ele>0</ele><time>2009-01-22T21:50:42Z</time></trkpt>
<trkpt lat="48.11536000" lon="-72.24337000"><ele>0</ele><time>2009-01-22T21:50:42Z</time></trkpt>
<trkpt lat="48.11455900" lon="-72.24260700"><ele>0</ele><time>2009-01-22T21:50:42Z</time></trkpt>
<trkpt lat="48.11455900" lon="-72.24260700"><ele>0</ele><time>2009-01-22T21:50:42Z</time></trkpt>
<trkpt lat="48.11455900" lon="-72.24260700"><ele>0</ele><time>2009-01-22T21:50:42Z</time></trkpt>
<trkpt lat="48.11438800" lon="-72.24315600"><ele>0</ele><time>2009-01-22T21:50:42Z</time></trkpt>
<trkpt lat="48.11470800" lon="-72.24337000"><ele>0</ele><time>2009-01-22T21:50:42Z</time></trkpt>
<trkpt lat="48.11464700" lon="-72.24343900"><ele>0</ele><time>2009-01-22T21:50:42Z</time></trkpt>
<trkpt lat="48.11425800" lon="-72.24317200"><ele>0</ele><time>2009-01-22T21:50:42Z</time></trkpt>
<trkpt lat="48.11438800" lon="-72.24280500"><ele>0</ele><time>2009-01-22T21:50:42Z</time></trkpt>
<trkpt lat="48.11446000" lon="-72.24270600"><ele>0</ele><time>2009-01-22T21:50:42Z</time></trkpt>
<trkpt lat="48.11455900" lon="-72.24280500"><ele>0</ele><time>2009-01-22T21:50:42Z</time></trkpt>
<trkpt lat="48.11455900" lon="-72.24280500"><ele>0</ele><time>2009-01-22T21:50:42Z</time></trkpt>
<trkpt lat="48.11446800" lon="-72.24272200"><ele>0</ele><time>2009-01-22T21:50:42Z</time></trkpt>
<trkpt lat="48.11439900" lon="-72.24279800"><ele>0</ele><time>2009-01-22T21:50:42Z</time></trkpt>
<trkpt lat="48.11433800" lon="-72.24321700"><ele>0</ele><time>2009-01-22T21:50:42Z</time></trkpt>
<trkpt lat="48.11434900" lon="-72.24346200"><ele>0</ele><time>2009-01-22T21:50:42Z</time></trkpt>
<trkpt lat="48.11433000" lon="-72.24321700"><ele>0</ele><time>2009-01-22T21:50:42Z</time></trkpt>
<trkpt lat="48.11433800" lon="-72.24311800"><ele>0</ele><time>2009-01-22T21:50:42Z</time></trkpt>
<trkpt lat="48.11438000" lon="-72.24302700"><ele>0</ele><time>2009-01-22T21:50:42Z</time></trkpt>
<trkpt lat="48.11438800" lon="-72.24302700"><ele>0</ele><time>2009-01-22T21:50:42Z</time></trkpt>
<trkpt lat="48.11438000" lon="-72.24292800"><ele>0</ele><time>2009-01-22T21:50:42Z</time></trkpt>
<trkpt lat="48.11417800" lon="-72.24068500"><ele>0</ele><time>2009-01-22T21:50:42Z</time></trkpt>
<trkpt lat="48.11327700" lon="-72.23600800"><ele>0</ele><time>2009-01-22T21:50:42Z</time></trkpt>
<trkpt lat="48.11282000" lon="-72.23519900"><ele>0</ele><time>2009-01-22T21:50:42Z</time></trkpt>
<trkpt lat="48.11330000" lon="-72.23484800"><ele>0</ele><time>2009-01-22T21:50:42Z</time></trkpt>
<trkpt lat="48.11330000" lon="-72.23484800"><ele>0</ele><time>2009-01-22T21:50:42Z</time></trkpt>
<trkpt lat="48.11755800" lon="-72.23240700"><ele>0</ele><time>2009-01-22T21:50:42Z</time></trkpt>
<trkpt lat="48.12593800" lon="-72.22859200"><ele>0</ele><time>2009-01-22T21:50:42Z</time></trkpt>
<trkpt lat="48.12648800" lon="-72.22866100"><ele>0</ele><time>2009-01-22T21:50:42Z</time></trkpt>
<trkpt lat="48.12767800" lon="-72.22930100"><ele>0</ele><time>2009-01-22T21:50:42Z</time></trkpt>
<trkpt lat="48.13414800" lon="-72.23603100"><ele>0</ele><time>2009-01-22T21:50:42Z</time></trkpt>
<trkpt lat="48.13974000" lon="-72.23809100"><ele>0</ele><time>2009-01-22T21:50:42Z</time></trkpt>
<trkpt lat="48.14286000" lon="-72.23667900"><ele>0</ele><time>2009-01-22T21:50:42Z</time></trkpt>
<trkpt lat="48.15008900" lon="-72.23437500"><ele>0</ele><time>2009-01-22T21:50:42Z</time></trkpt>
<trkpt lat="48.15158800" lon="-72.23311600"><ele>0</ele><time>2009-01-22T21:50:42Z</time></trkpt>
<trkpt lat="48.15535000" lon="-72.23147600"><ele>0</ele><time>2009-01-22T21:50:42Z</time></trkpt>
<trkpt lat="48.16046900" lon="-72.23088100"><ele>0</ele><time>2009-01-22T21:50:42Z</time></trkpt>
<trkpt lat="48.16819000" lon="-72.22499100"><ele>0</ele><time>2009-01-22T21:50:42Z</time></trkpt>
<trkpt lat="48.16904100" lon="-72.22310600"><ele>0</ele><time>2009-01-22T21:50:42Z</time></trkpt>
<trkpt lat="48.17425900" lon="-72.21519500"><ele>0</ele><time>2009-01-22T21:50:42Z</time></trkpt>
<trkpt lat="48.18018700" lon="-72.21389800"><ele>0</ele><time>2009-01-22T21:50:42Z</time></trkpt>
<trkpt lat="48.18174000" lon="-72.21517200"><ele>0</ele><time>2009-01-22T21:50:42Z</time></trkpt>
<trkpt lat="48.18251000" lon="-72.21579700"><ele>0</ele><time>2009-01-22T21:50:42Z</time></trkpt>
<trkpt lat="48.19133000" lon="-72.21736900"><ele>0</ele><time>2009-01-22T21:50:42Z</time></trkpt>
<trkpt lat="48.19649900" lon="-72.21492800"><ele>0</ele><time>2009-01-22T21:50:42Z</time></trkpt>
<trkpt lat="48.19743700" lon="-72.21443900"><ele>0</ele><time>2009-01-22T21:50:42Z</time></trkpt>
<trkpt lat="48.20002000" lon="-72.21312700"><ele>0</ele><time>2009-01-22T21:50:42Z</time></trkpt>
<trkpt lat="48.20892700" lon="-72.21054100"><ele>0</ele><time>2009-01-22T21:50:42Z</time></trkpt>
<trkpt lat="48.21418800" lon="-72.20840500"><ele>0</ele><time>2009-01-22T21:50:42Z</time></trkpt>
<trkpt lat="48.21790700" lon="-72.20690900"><ele>0</ele><time>2009-01-22T21:50:42Z</time></trkpt>
<trkpt lat="48.22654000" lon="-72.20407100"><ele>0</ele><time>2009-01-22T21:50:42Z</time></trkpt>
<trkpt lat="48.23082000" lon="-72.20159100"><ele>0</ele><time>2009-01-22T21:50:42Z</time></trkpt>
<trkpt lat="48.23502000" lon="-72.19950100"><ele>0</ele><time>2009-01-22T21:50:42Z</time></trkpt>
<trkpt lat="48.24269900" lon="-72.19194800"><ele>0</ele><time>2009-01-22T21:50:42Z</time></trkpt>
<trkpt lat="48.24535800" lon="-72.18994900"><ele>0</ele><time>2009-01-22T21:50:42Z</time></trkpt>
<trkpt lat="48.25085100" lon="-72.18593600"><ele>0</ele><time>2009-01-22T21:50:42Z</time></trkpt>
<trkpt lat="48.25864000" lon="-72.18036700"><ele>0</ele><time>2009-01-22T21:50:42Z</time></trkpt>
<trkpt lat="48.25869800" lon="-72.18048900"><ele>0</ele><time>2009-01-22T21:50:42Z</time></trkpt>
<trkpt lat="48.25882700" lon="-72.18084000"><ele>0</ele><time>2009-01-22T21:50:42Z</time></trkpt>
<trkpt lat="48.25893800" lon="-72.18138900"><ele>0</ele><time>2009-01-22T21:50:42Z</time></trkpt>
<trkpt lat="48.25927700" lon="-72.18429600"><ele>0</ele><time>2009-01-22T21:50:42Z</time></trkpt>
<trkpt lat="48.25886900" lon="-72.18477600"><ele>0</ele><time>2009-01-22T21:50:42Z</time></trkpt>
<trkpt lat="48.25869800" lon="-72.18486800"><ele>0</ele><time>2009-01-22T21:50:42Z</time></trkpt>
<trkpt lat="48.25841900" lon="-72.18512700"><ele>0</ele><time>2009-01-22T21:50:42Z</time></trkpt>
<trkpt lat="48.25828900" lon="-72.18492100"><ele>0</ele><time>2009-01-22T21:50:42Z</time></trkpt>
<trkpt lat="48.25828900" lon="-72.18489800"><ele>0</ele><time>2009-01-22T21:50:42Z</time></trkpt>
<trkpt lat="48.25838900" lon="-72.18479900"><ele>0</ele><time>2009-01-22T21:50:42Z</time></trkpt>
<trkpt lat="48.25856000" lon="-72.18503600"><ele>0</ele><time>2009-01-22T21:50:42Z</time></trkpt>
<trkpt lat="48.25882000" lon="-72.18484500"><ele>0</ele><time>2009-01-22T21:50:42Z</time></trkpt>
<trkpt lat="48.25917100" lon="-72.18437200"><ele>0</ele><time>2009-01-22T21:50:42Z</time></trkpt>
<trkpt lat="48.25938000" lon="-72.18386800"><ele>0</ele><time>2009-01-22T21:50:42Z</time></trkpt>
<trkpt lat="48.25853000" lon="-72.18042800"><ele>0</ele><time>2009-01-22T21:50:42Z</time></trkpt>
<trkpt lat="48.25841900" lon="-72.18042000"><ele>0</ele><time>2009-01-22T21:50:42Z</time></trkpt>
<trkpt lat="48.25653800" lon="-72.18180800"><ele>0</ele><time>2009-01-22T21:50:42Z</time></trkpt>
<trkpt lat="48.25397900" lon="-72.18370100"><ele>0</ele><time>2009-01-22T21:50:42Z</time></trkpt>
<trkpt lat="48.24578900" lon="-72.18972000"><ele>0</ele><time>2009-01-22T21:50:42Z</time></trkpt>
<trkpt lat="48.24272900" lon="-72.19197800"><ele>0</ele><time>2009-01-22T21:50:42Z</time></trkpt>
<trkpt lat="48.23798800" lon="-72.19664800"><ele>0</ele><time>2009-01-22T21:50:42Z</time></trkpt>
<trkpt lat="48.22947700" lon="-72.20222500"><ele>0</ele><time>2009-01-22T21:50:42Z</time></trkpt>
<trkpt lat="48.22863800" lon="-72.20262100"><ele>0</ele><time>2009-01-22T21:50:42Z</time></trkpt>
<trkpt lat="48.22079800" lon="-72.20669600"><ele>0</ele><time>2009-01-22T21:50:42Z</time></trkpt>
<trkpt lat="48.21350900" lon="-72.20871000"><ele>0</ele><time>2009-01-22T21:50:42Z</time></trkpt>
<trkpt lat="48.21188700" lon="-72.20936600"><ele>0</ele><time>2009-01-22T21:50:42Z</time></trkpt>
<trkpt lat="48.20290800" lon="-72.21242500"><ele>0</ele><time>2009-01-22T21:50:42Z</time></trkpt>
<trkpt lat="48.19606000" lon="-72.21501900"><ele>0</ele><time>2009-01-22T21:50:42Z</time></trkpt>
<trkpt lat="48.19414900" lon="-72.21596500"><ele>0</ele><time>2009-01-22T21:50:42Z</time></trkpt>
<trkpt lat="48.18531000" lon="-72.21733100"><ele>0</ele><time>2009-01-22T21:50:42Z</time></trkpt>
<trkpt lat="48.17918800" lon="-72.21326400"><ele>0</ele><time>2009-01-22T21:50:42Z</time></trkpt>
<trkpt lat="48.17677700" lon="-72.21321100"><ele>0</ele><time>2009-01-22T21:50:42Z</time></trkpt>
<trkpt lat="48.17049800" lon="-72.21978800"><ele>0</ele><time>2009-01-22T21:50:42Z</time></trkpt>
<trkpt lat="48.16975800" lon="-72.22145100"><ele>0</ele><time>2009-01-22T21:50:42Z</time></trkpt>
<trkpt lat="48.16569900" lon="-72.22890500"><ele>0</ele><time>2009-01-22T21:50:42Z</time></trkpt>
<trkpt lat="48.16339900" lon="-72.23053000"><ele>0</ele><time>2009-01-22T21:50:42Z</time></trkpt>
<trkpt lat="48.16219700" lon="-72.23085800"><ele>0</ele><time>2009-01-22T21:50:42Z</time></trkpt>
<trkpt lat="48.15414800" lon="-72.23172800"><ele>0</ele><time>2009-01-22T21:50:42Z</time></trkpt>
<trkpt lat="48.14864700" lon="-72.23498500"><ele>0</ele><time>2009-01-22T21:50:42Z</time></trkpt>
<trkpt lat="48.14555000" lon="-72.23559600"><ele>0</ele><time>2009-01-22T21:50:42Z</time></trkpt>
<trkpt lat="48.13649000" lon="-72.23838000"><ele>0</ele><time>2009-01-22T21:50:42Z</time></trkpt>
<trkpt lat="48.13213000" lon="-72.23392500"><ele>0</ele><time>2009-01-22T21:50:42Z</time></trkpt>
<trkpt lat="48.12907800" lon="-72.23066700"><ele>0</ele><time>2009-01-22T21:50:42Z</time></trkpt>
<trkpt lat="48.12064000" lon="-72.23095700"><ele>0</ele><time>2009-01-22T21:50:42Z</time></trkpt>
<trkpt lat="48.11781700" lon="-72.23243000"><ele>0</ele><time>2009-01-22T21:50:42Z</time></trkpt>
<trkpt lat="48.11275900" lon="-72.23548900"><ele>0</ele><time>2009-01-22T21:50:42Z</time></trkpt>
<trkpt lat="48.11298800" lon="-72.23590900"><ele>0</ele><time>2009-01-22T21:50:42Z</time></trkpt>
<trkpt lat="48.11309100" lon="-72.23603100"><ele>0</ele><time>2009-01-22T21:50:42Z</time></trkpt>
<trkpt lat="48.11375000" lon="-72.23925000"><ele>0</ele><time>2009-01-22T21:50:42Z</time></trkpt>
<trkpt lat="48.11422000" lon="-72.24087500"><ele>0</ele><time>2009-01-22T21:50:42Z</time></trkpt>
<trkpt lat="48.11447900" lon="-72.24305000"><ele>0</ele><time>2009-01-22T21:50:42Z</time></trkpt>
<trkpt lat="" lon=""><ele>0</ele><time>-0-0T0:0:0Z</time></trkpt>
</trkseg></trk></gpx>